Terminal Aerodrome Forecast
Issued by NWS

Home | Current Version | Previous Version | Text Only | Print | Product List | Glossary On
Versions: 1 2 3 4 5 6 7 8 9 10 11 12 13 14 15 16 17 18 19
000
FTUS44 KLZK 240500
TAFLLQ
TAF
KLLQ 240539Z 2406/2506 11003KT P6SM BKN250
     FM241500 18009KT P6SM SCT040 SCT250
     FM242000 20010G18KT P6SM VCSH SCT040 BKN080
     FM250300 27013G23KT P6SM SCT040=

USA.gov is the U.S. government's official web portal to all federal, state and local government web resources and services.